[[{"header":{"parameterUnit":"m.s-1","parameterCategory":2,"la1":30.2991,"la2":30.254,"lo1":-89.0895,"lo2":-89.0444,"dy":0.0017,"dx":0.0017,"nx":28,"ny":28,"refTime":"2025-03-24T03:00:00:Z","depth":"0","parameterNumber":2,"parameterNumberName":"U-component_of_CURRENTS"},"data":[0,0,0,0,0,0,0,0,0,0,0,0,0,0,0,0,0,0,0,0,0,0,0,0,0,0,0,0,0,0,0,0,0,0,0,0,0,0,0,0,0,0,0,0,0,0,0,0,0,0,0,0,0,0,0,0,0,0,0.3576,0.3577,0,0.3683,0.3684,0.3685,0.3703,0.3702,0.3702,0.3701,0.3763,0.3766,0.3768,0,0,0,0,0,0,0,0,0,0,0,0,0,0.3494,0.3495,0.3576,0.3577,0.3579,0.3682,0.3684,0.3685,0.3703,0.3702,0.3701,0.3701,0.3763,0.3765,0.3768,0,0,0,0,0,0,0,0,0,0,0,0,0,0.3556,0.3495,0.3575,0.3602,0.3606,0.3682,0.3684,0.3685,0.3703,0.3702,0.3701,0.37,0.3762,0.3765,0.3769,0.3811,0,0,0.3779,0.3781,0,0,0,0,0,0,0,0,0.3552,0.3558,0.3597,0.36,0.3605,0.368,0.3678,0.3726,0.3704,0.3664,0.3701,0.37,0.3734,0.374,0.3759,0.3814,0.3816,0.3779,0.3782,0.3783,0.3784,0,0,0,0,0,0,0,0.3547,0.3554,0.3616,0.3598,0.3603,0.3646,0.3652,0.3688,0.3701,0.3667,0.3669,0.3685,0.3735,0.3756,0.3761,0.3817,0.3779,0.3782,0.3785,0.3786,0.3939,0.394,0,0,0,0,0,0,0.3535,0.355,0.3612,0.3619,0.3578,0.3647,0.3655,0.3655,0.3701,0.3709,0.3686,0.3686,0.3751,0.3757,0.3763,0.3854,0.3783,0.3786,0.3788,0.3937,0.3939,0.3941,0,0,0,0,0,0,0.3532,0.3538,0.3608,0.359,0.3602,0.3649,0.3651,0.3658,0.3678,0.3717,0.3722,0.3699,0.375,0.3758,0.3802,0.3854,0.3788,0.3791,0.3934,0.3937,0.394,0.401,0,0,0,0,0,0,0.3529,0.3537,0.3537,0.3588,0.3602,0.3659,0.3652,0.3661,0.3691,0.3691,0.373,0.3734,0.375,0.3796,0.3805,0.3858,0.3794,0.3932,0.3936,0.3939,0.4005,0.4015,0.4024,0,0,0,0,0,0.3525,0.354,0.3535,0.3544,0.3599,0.366,0.3671,0.3701,0.3692,0.3712,0.3735,0.3733,0.3826,0.3801,0.381,0.3866,0.393,0.3934,0.3939,0.4001,0.4013,0.4023,0,0,0,0,0,0,0.353,0.3545,0.3541,0.3564,0.3607,0.3664,0.3692,0.3703,0.3738,0.3736,0.3755,0.3763,0.383,0.3831,0.3802,0.392,0.388,0.3886,0.3924,0.3936,0.3945,0.3946,0.3797,0,0,0,0,0,0.3523,0.3521,0.356,0.3583,0.3601,0.3642,0.367,0.3689,0.3728,0.3742,0.3767,0.3802,0.3859,0.3879,0.3923,0.3978,0.4035,0.402,0.4029,0.4037,0.4045,0.4197,0.4221,0.3956,0.3956,0.3956,0,0,0.354,0.3543,0.3549,0.3581,0.3614,0.3666,0.3656,0.3705,0.3755,0.3745,0.3811,0.3838,0.3882,0.3955,0.3984,0.3959,0.4144,0.4042,0.4049,0.4053,0.4204,0.423,0.4254,0.3959,0.3958,0.3958,0,0,0.3574,0.3567,0.3578,0.3615,0.3656,0.3688,0.3699,0.3752,0.3778,0.3847,0.3859,0.3908,0.3983,0.4025,0.4059,0.414,0.4193,0.4156,0.42,0.4348,0.4372,0.4393,0.4507,0.4538,0.4153,0.4153,0.4153,0,0.36,0.3608,0.3602,0.3636,0.3681,0.3697,0.3753,0.3794,0.3855,0.3898,0.3877,0.4018,0.4027,0.4144,0.4157,0.4165,0.4249,0.4155,0.4363,0.4385,0.4406,0.4517,0.4551,0.4157,0.4157,0.4156,0.4156,0,0.364,0.3664,0.3686,0.3721,0.3767,0.3822,0.3875,0.3918,0.3947,0.3999,0.4109,0.4135,0.422,0.423,0.4213,0.4362,0.4375,0.4366,0.4338,0.4438,0.4548,0.4582,0.4163,0.4161,0.416,0.4159,0,0,0.366,0.3704,0.3712,0.3756,0.3817,0.3873,0.3949,0.4042,0.4128,0.4173,0.4302,0.435,0.4361,0.4396,0.4394,0.4482,0.4674,0.4475,0.4481,0.4592,0.5006,0.4879,0.4903,0.4721,0.4727,0.4732,0.5027,0,0.3701,0.3779,0.3784,0.3893,0.3952,0.3994,0.4082,0.4168,0.4241,0.4367,0.4409,0.4526,0.4432,0.4486,0.4562,0.4664,0.4766,0.4594,0.4888,0.4896,0.4776,0.4939,0.4617,0.4842,0.506,0.5065,0.5069,0,0.3731,0.3782,0.3884,0.3998,0.403,0.4095,0.4246,0.4331,0.4484,0.4548,0.4647,0.4697,0.4816,0.4733,0.4958,0.4864,0.4936,0.4994,0.5008,0.4886,0.4832,0.4776,0.4895,0.4727,0.5121,0.5117,0.5113,0,0.3763,0.3856,0.394,0.3982,0.4111,0.4168,0.4243,0.4387,0.4503,0.4673,0.4789,0.492,0.5035,0.5143,0.5199,0.5129,0.5464,0.5397,0.5354,0.5346,0.5122,0.5083,0.511,0.5587,0.5587,0.5586,0.5585,0,0.3814,0.3893,0.396,0.4025,0.4165,0.4218,0.4392,0.4482,0.4651,0.4832,0.4883,0.5054,0.5152,0.5319,0.5337,0.5453,0.5591,0.5404,0.5434,0.5134,0.5094,0.4973,0.4914,0.5597,0.5594,0.5592,0.559,0,0.3888,0.3908,0.4038,0.4153,0.4192,0.4309,0.4486,0.4623,0.4743,0.4985,0.5051,0.5246,0.5436,0.5504,0.5718,0.5647,0.5582,0.5754,0.5365,0.534,0.5066,0.5022,0.4993,0.4859,0.5771,0.577,0.5769,0,0.3945,0.4011,0.4153,0.4233,0.4292,0.444,0.4558,0.4679,0.482,0.5104,0.5238,0.5465,0.5598,0.5817,0.5723,0.5757,0.5599,0.5502,0.5277,0.5043,0.5022,0.4859,0.4737,0.503,0.5023,0.5017,0.5013,0,0.4097,0.4138,0.4248,0.439,0.45,0.4624,0.4772,0.4871,0.5038,0.5185,0.5395,0.5509,0.5662,0.5522,0.5525,0.5498,0.5182,0.5386,0.527,0.4551,0.4258,0.4141,0.4837,0.4962,0.4967,0.4971,0.4974,0.4976,0.4228,0.4331,0.4438,0.4568,0.4667,0.473,0.4767,0.4893,0.502,0.5097,0.5352,0.5338,0.53,0.5212,0.5174,0.4804,0.4877,0.4579,0.459,0.4483,0.4191,0.4756,0.4821,0.4824,0.4828,0.4831,0.4834,0,0.4391,0.4466,0.4602,0.4685,0.4729,0.4761,0.4853,0.4791,0.4809,0.4904,0.4961,0.4788,0.4632,0.4544,0.4217,0.4004,0.3828,0.3891,0.3574,0.3529,0.4139,0.3934,0.3654,0.3654,0.3654,0.3654,0.3655,0.3655,0.4483,0.4615,0.4644,0.4682,0.47,0.4599,0.4574,0.4472,0.4443,0.4226,0.4039,0.4031,0.4025,0.3875,0.3558,0.3445,0.3191,0.3001,0.3122,0.3501,0.3563,0.3623,0.3415,0.303,0.303,0.2272,0.2266,0.2262]},{"header":{"parameterUnit":"m.s-1","parameterCategory":2,"la1":30.2991,"la2":30.254,"lo1":-89.0895,"lo2":-89.0444,"dy":0.0017,"dx":0.0017,"nx":28,"ny":28,"refTime":"2025-03-24T03:00:00:Z","depth":"0","parameterNumber":3,"parameterNumberName":"V-component_of_CURRENTS"},"data":[0,0,0,0,0,0,0,0,0,0,0,0,0,0,0,0,0,0,0,0,0,0,0,0,0,0,0,0,0,0,0,0,0,0,0,0,0,0,0,0,0,0,0,0,0,0,0,0,0,0,0,0,0,0,0,0,0,0,0.0048,0.0048,0,-0.0019,-0.002,-0.002,-0.0063,-0.0064,-0.0064,-0.0064,-0.0114,-0.0115,-0.0116,0,0,0,0,0,0,0,0,0,0,0,0,0,0.0083,0.0083,0.0048,0.0047,0.0047,-0.0019,-0.002,-0.0021,-0.0063,-0.0064,-0.0064,-0.0064,-0.0114,-0.0115,-0.0117,0,0,0,0,0,0,0,0,0,0,0,0,0,0.0048,0.0083,0.0048,0.0017,0.0014,-0.0019,-0.002,-0.0021,-0.0063,-0.0064,-0.0064,-0.0065,-0.0114,-0.0115,-0.0117,-0.0119,0,0,-0.0122,-0.0122,0,0,0,0,0,0,0,0,0.005,0.0046,0.0023,0.0019,0.0015,-0.0033,-0.0026,-0.0053,-0.0063,-0.0034,-0.0064,-0.0065,-0.0085,-0.0089,-0.0101,-0.0121,-0.0123,-0.0122,-0.0123,-0.0124,-0.0124,0,0,0,0,0,0,0,0.0052,0.0049,0.0022,0.0022,0.0017,-0.0013,-0.0018,-0.0031,-0.0056,-0.0037,-0.004,-0.0047,-0.0087,-0.01,-0.0103,-0.0124,-0.0122,-0.0123,-0.0124,-0.0125,-0.0134,-0.0133,0,0,0,0,0,0,0.0064,0.0052,0.0024,0.002,0.0032,-0.0013,-0.0018,-0.0017,-0.0057,-0.0063,-0.0047,-0.0049,-0.0097,-0.0101,-0.0105,-0.007,-0.0123,-0.0125,-0.0126,-0.0135,-0.0134,-0.0133,0,0,0,0,0,0,0.0065,0.0063,0.0027,0.0033,0.0027,-0.0012,-0.0011,-0.0018,-0.0027,-0.0065,-0.0071,-0.0048,-0.0097,-0.0102,-0.0106,-0.0074,-0.0126,-0.0127,-0.0135,-0.0134,-0.0133,-0.0027,0,0,0,0,0,0,0.0067,0.0064,0.0071,0.0035,0.0027,0.0026,-0.0011,-0.0019,-0.0032,-0.0035,-0.0068,-0.0073,-0.0098,-0.0103,-0.0107,-0.0077,-0.0129,-0.0136,-0.0135,-0.0134,-0.0032,-0.0022,-0.0015,0,0,0,0,0,0.0068,0.0085,0.0072,0.0068,0.0037,0.0028,0.0022,-0.0009,-0.0031,-0.0021,-0.0048,-0.0072,-0.0097,-0.0103,-0.0109,-0.0079,-0.0137,-0.0135,-0.0134,-0.0035,-0.0024,-0.0015,0,0,0,0,0,0,0.0097,0.0081,0.0066,0.0074,0.0059,0.0021,0.0022,-0.0002,-0.0017,-0.0024,-0.0061,-0.0067,-0.0058,-0.0088,-0.0093,-0.008,-0.0122,-0.0121,-0.0045,-0.0035,-0.0027,0.0005,-0.013,0,0,0,0,0,0.0109,0.0121,0.0094,0.0101,0.0096,0.0059,0.005,0.003,0.0008,-0.0,-0.0024,-0.0049,-0.0057,-0.0061,-0.0077,-0.0068,-0.0061,-0.0055,-0.0046,-0.0039,-0.0018,0.0026,0.0041,-0.0127,-0.0127,-0.0127,0,0,0.0118,0.0113,0.0116,0.0109,0.0091,0.0107,0.0054,0.0047,0.0068,-0.0002,0.0016,-0.0019,-0.0049,-0.0036,-0.0035,-0.0055,0.0012,-0.0036,-0.0029,-0.0013,0.0029,0.0046,0.0061,-0.0126,-0.0126,-0.0127,0,0,0.0155,0.0142,0.0168,0.0168,0.0155,0.0139,0.0143,0.0112,0.0108,0.0113,0.0072,0.0061,0.0039,0.0032,0.0025,0.0069,0.0055,0.0052,0.0125,0.0167,0.0182,0.0196,0.023,0.0246,0.0057,0.0058,0.0058,0,0.0169,0.02,0.0173,0.0204,0.0215,0.0163,0.0199,0.0191,0.0165,0.0173,0.0136,0.0117,0.0082,0.0116,0.0121,0.0094,0.0109,0.0093,0.0182,0.0196,0.0208,0.0239,0.0256,0.0063,0.0062,0.0062,0.0061,0,0.0232,0.0257,0.0273,0.0302,0.0311,0.033,0.032,0.0323,0.03,0.0289,0.0306,0.0256,0.0247,0.0229,0.0185,0.0246,0.0227,0.0191,0.0166,0.0232,0.026,0.0275,0.007,0.0069,0.0067,0.0066,0,0,0.0264,0.031,0.0317,0.0349,0.0367,0.0379,0.0421,0.0445,0.0477,0.0446,0.05,0.0457,0.0413,0.0401,0.0347,0.0369,0.0449,0.0315,0.0315,0.0367,0.0547,0.0487,0.0497,0.0433,0.0436,0.0438,0.0535,0,0.0323,0.0403,0.0413,0.0488,0.0527,0.0514,0.0561,0.0575,0.0574,0.061,0.0573,0.0594,0.0488,0.0485,0.049,0.0471,0.0492,0.0426,0.046,0.0462,0.0415,0.0513,0.0465,0.0543,0.0549,0.0552,0.0553,0,0.0387,0.0434,0.0521,0.0587,0.0603,0.064,0.07,0.0737,0.0772,0.0775,0.0783,0.0752,0.0778,0.0676,0.0694,0.0659,0.0609,0.0583,0.0586,0.0507,0.043,0.0475,0.057,0.0381,0.0576,0.0574,0.0572,0,0.0427,0.0509,0.0583,0.0608,0.0672,0.0709,0.0741,0.0783,0.0836,0.0891,0.0946,0.094,0.098,0.0926,0.0844,0.0786,0.0874,0.0789,0.0691,0.0685,0.064,0.0625,0.0572,0.0808,0.0808,0.0807,0.0807,0,0.0489,0.0544,0.0604,0.0644,0.0728,0.0758,0.0848,0.0876,0.0957,0.1074,0.1032,0.1139,0.1048,0.1069,0.0947,0.0887,0.0958,0.0739,0.0722,0.0672,0.0659,0.0485,0.0368,0.0811,0.081,0.0809,0.0809,0,0.0517,0.0559,0.0644,0.0723,0.0749,0.0808,0.0913,0.0996,0.1056,0.122,0.1259,0.1333,0.1384,0.1269,0.1227,0.1051,0.086,0.092,0.0861,0.0833,0.0517,0.0408,0.0342,0.0261,0.0838,0.0837,0.0837,0,0.0541,0.0591,0.0692,0.0755,0.0792,0.088,0.0963,0.1033,0.1151,0.1361,0.1477,0.1569,0.1687,0.1582,0.1307,0.1114,0.0904,0.0882,0.0739,0.0527,0.0394,0.0304,0.0234,0.0728,0.0727,0.0726,0.0725,0,0.0597,0.063,0.0706,0.0824,0.0918,0.1028,0.116,0.1264,0.1416,0.1583,0.1844,0.1961,0.1867,0.1683,0.1361,0.1179,0.0713,0.0848,0.0664,0.0342,0.0212,0.0116,0.0626,0.0714,0.0715,0.0716,0.0717,0.0717,0.0646,0.0708,0.0814,0.0912,0.1032,0.1193,0.1311,0.1503,0.1724,0.2035,0.2119,0.2361,0.1981,0.1562,0.1276,0.0646,0.0667,0.0426,0.0329,0.0273,0.0134,0.0611,0.0641,0.0642,0.0643,0.0643,0.0643,0,0.0731,0.08,0.0903,0.1048,0.1184,0.1228,0.1467,0.1629,0.1933,0.2258,0.2497,0.2451,0.1977,0.1454,0.0592,0.0185,0.0033,-0.003,-0.0171,-0.0204,0.0263,0.0192,0.0084,0.0084,0.0084,0.0084,0.0085,0.0085,0.079,0.0902,0.0936,0.1146,0.1258,0.1477,0.1623,0.1884,0.2151,0.254,0.2722,0.2831,0.2341,0.0862,-0.0088,-0.0277,-0.0559,-0.0632,-0.0723,-0.044,-0.0405,-0.0372,-0.0466,-0.071,-0.0711,-0.1164,-0.1169,-0.1173]}],[{"header":{"parameterUnit":"m.s-1","parameterCategory":2,"la1":30.2991,"la2":30.254,"lo1":-89.0895,"lo2":-89.0444,"dy":0.0017,"dx":0.0017,"nx":28,"ny":28,"refTime":"2025-03-24T03:00:00:Z","depth":"2","parameterNumber":2,"parameterNumberName":"U-component_of_CURRENTS"},"data":[0,0,0,0,0,0,0,0,0,0,0,0,0,0,0,0,0,0,0,0,0,0,0,0,0,0,0,0,0,0,0,0,0,0,0,0,0,0,0,0,0,0,0,0,0,0,0,0,0,0,0,0,0,0,0,0,0,0,0.2651,0.2652,0,0.2721,0.2721,0.2722,0.2745,0.2745,0.2745,0.2745,0.2768,0.2768,0.2769,0,0,0,0,0,0,0,0,0,0,0,0,0,0.2579,0.258,0.2651,0.2652,0.2653,0.2721,0.2721,0.2722,0.2745,0.2745,0.2745,0.2745,0.2767,0.2768,0.2769,0,0,0,0,0,0,0,0,0,0,0,0,0,0.2622,0.258,0.265,0.2675,0.2679,0.2721,0.2721,0.2722,0.2745,0.2745,0.2745,0.2745,0.2767,0.2768,0.2769,0.2773,0,0,0.2771,0.2772,0,0,0,0,0,0,0,0,0.262,0.2625,0.2671,0.2674,0.2678,0.2727,0.2705,0.2738,0.2745,0.2716,0.2745,0.2745,0.2752,0.2754,0.2763,0.2774,0.2775,0.2771,0.2772,0.2772,0.2773,0,0,0,0,0,0,0,0.2617,0.2622,0.2675,0.2672,0.2676,0.2698,0.2703,0.2711,0.2729,0.2719,0.2721,0.2735,0.2753,0.2762,0.2763,0.2775,0.2771,0.2772,0.2773,0.2773,0.29,0.2902,0,0,0,0,0,0,0.2613,0.2619,0.2673,0.2677,0.2652,0.2699,0.2705,0.2708,0.273,0.2735,0.2735,0.2736,0.276,0.2762,0.2764,0.2852,0.2772,0.2773,0.2774,0.2897,0.29,0.2903,0,0,0,0,0,0,0.2611,0.2617,0.267,0.2653,0.2662,0.2701,0.2704,0.271,0.2734,0.2744,0.2747,0.2755,0.2761,0.2763,0.2801,0.285,0.2773,0.2774,0.2894,0.2898,0.2902,0.2976,0,0,0,0,0,0,0.2609,0.2615,0.2625,0.2653,0.2663,0.271,0.2705,0.2711,0.2743,0.2746,0.2762,0.2763,0.2761,0.28,0.2802,0.285,0.2775,0.289,0.2895,0.2901,0.297,0.2982,0.2993,0,0,0,0,0,0.2606,0.2622,0.2624,0.2632,0.2671,0.2712,0.2719,0.2744,0.2744,0.2764,0.2783,0.2764,0.2836,0.2802,0.2804,0.2854,0.2887,0.2894,0.29,0.2965,0.298,0.2993,0,0,0,0,0,0,0.26,0.2628,0.263,0.2654,0.2686,0.2717,0.2746,0.2754,0.2783,0.2792,0.2787,0.2791,0.2849,0.2842,0.2805,0.2911,0.2864,0.2871,0.2913,0.2926,0.2938,0.2929,0.2776,0,0,0,0,0,0.2601,0.2618,0.2648,0.2669,0.269,0.2717,0.2739,0.2758,0.2785,0.2799,0.2812,0.2838,0.2875,0.2891,0.2917,0.2961,0.2983,0.3001,0.3013,0.3022,0.302,0.3108,0.3127,0.2925,0.2925,0.2924,0,0,0.2604,0.2623,0.2632,0.2669,0.2698,0.2735,0.2731,0.2777,0.2811,0.2796,0.285,0.2875,0.2897,0.2959,0.2984,0.2959,0.3098,0.303,0.3038,0.303,0.3117,0.3137,0.3154,0.2929,0.2928,0.2927,0,0,0.2625,0.2639,0.2663,0.2691,0.2741,0.2764,0.2779,0.2823,0.2849,0.2902,0.2912,0.296,0.3008,0.3036,0.3056,0.3143,0.3156,0.3168,0.3215,0.3302,0.3319,0.3334,0.3407,0.3428,0.3172,0.3173,0.3173,0,0.2628,0.2656,0.268,0.2714,0.2744,0.2777,0.2817,0.2851,0.2902,0.2929,0.2933,0.3033,0.3044,0.3121,0.3162,0.3166,0.3221,0.3156,0.3316,0.3331,0.3345,0.3416,0.3438,0.3177,0.3176,0.3176,0.3176,0,0.2665,0.2691,0.2715,0.2762,0.2801,0.2843,0.2894,0.2937,0.2975,0.3006,0.3094,0.3129,0.3185,0.3213,0.3214,0.3327,0.3337,0.332,0.3275,0.337,0.3439,0.3461,0.3183,0.3182,0.318,0.3179,0,0,0.2658,0.2724,0.2732,0.2746,0.2829,0.2851,0.2935,0.3002,0.3048,0.3115,0.3192,0.3261,0.3284,0.3309,0.3331,0.3403,0.3553,0.3415,0.3417,0.3476,0.3763,0.3623,0.3633,0.3581,0.3585,0.3588,0.3778,0,0.2679,0.2731,0.2771,0.282,0.2852,0.291,0.2974,0.3041,0.3113,0.3198,0.3261,0.3342,0.3322,0.3374,0.3445,0.354,0.3612,0.3504,0.3671,0.3675,0.353,0.3653,0.3344,0.3475,0.3799,0.3802,0.3805,0,0.2697,0.2732,0.2784,0.2833,0.2854,0.2893,0.2993,0.3062,0.3193,0.3256,0.3356,0.341,0.354,0.3509,0.3701,0.3647,0.3708,0.3763,0.3771,0.3622,0.3574,0.343,0.3501,0.3841,0.3838,0.3835,0.3833,0,0.2662,0.2726,0.276,0.278,0.2861,0.2898,0.296,0.3081,0.3173,0.3319,0.3418,0.3532,0.3653,0.3744,0.3839,0.3808,0.4045,0.401,0.3931,0.3923,0.3677,0.3638,0.4131,0.413,0.413,0.4129,0.4129,0,0.2649,0.2669,0.2738,0.2751,0.28,0.2875,0.297,0.3045,0.3223,0.3339,0.3453,0.3561,0.3729,0.3864,0.3908,0.3992,0.4102,0.3962,0.397,0.3694,0.3657,0.3971,0.395,0.4137,0.4135,0.4134,0.4132,0,0.26,0.2643,0.269,0.2769,0.2784,0.2838,0.2992,0.3092,0.3239,0.3417,0.3484,0.3679,0.3843,0.3964,0.4139,0.4092,0.4163,0.4146,0.3801,0.3762,0.3971,0.3952,0.4112,0.4109,0.4106,0.4104,0.4102,0,0.2567,0.2578,0.269,0.2739,0.2776,0.2865,0.2954,0.3099,0.3218,0.3449,0.3539,0.3754,0.3844,0.4042,0.4021,0.4081,0.4158,0.3794,0.3644,0.3981,0.3974,0.3959,0.3944,0.3376,0.3368,0.3362,0.3357,0,0.2516,0.2577,0.262,0.2754,0.2837,0.2895,0.3013,0.3079,0.3263,0.3434,0.3593,0.3676,0.3821,0.3721,0.3766,0.3737,0.3754,0.3664,0.4156,0.3398,0.3294,0.3284,0.3293,0.3301,0.3306,0.3311,0.3314,0.3316,0.2521,0.2545,0.2664,0.2738,0.2836,0.2879,0.289,0.3007,0.3138,0.3243,0.3425,0.3444,0.3473,0.3375,0.3283,0.322,0.3477,0.3314,0.3331,0.3356,0.3207,0.31,0.3044,0.3048,0.3051,0.3055,0.3057,0,0.2528,0.2574,0.2657,0.2744,0.2786,0.288,0.2911,0.2864,0.2921,0.3026,0.3113,0.2867,0.2794,0.2836,0.265,0.2633,0.2591,0.2529,0.2453,0.2512,0.2564,0.2371,0.1989,0.1985,0.1982,0.1978,0,0,0.2576,0.2608,0.26,0.2633,0.2715,0.2685,0.2662,0.2587,0.2572,0.2501,0.2497,0.2647,0.2758,0.2341,0.2286,0.2106,0.2286,0.2021,0.2887,0.2859,0.2906,0.3037,0.2809,0,0,0,0,0]},{"header":{"parameterUnit":"m.s-1","parameterCategory":2,"la1":30.2991,"la2":30.254,"lo1":-89.0895,"lo2":-89.0444,"dy":0.0017,"dx":0.0017,"nx":28,"ny":28,"refTime":"2025-03-24T03:00:00:Z","depth":"2","parameterNumber":3,"parameterNumberName":"V-component_of_CURRENTS"},"data":[0,0,0,0,0,0,0,0,0,0,0,0,0,0,0,0,0,0,0,0,0,0,0,0,0,0,0,0,0,0,0,0,0,0,0,0,0,0,0,0,0,0,0,0,0,0,0,0,0,0,0,0,0,0,0,0,0,0,0.0095,0.0095,0,0.0057,0.0056,0.0056,0.0015,0.0015,0.0014,0.0013,-0.0025,-0.0025,-0.0026,0,0,0,0,0,0,0,0,0,0,0,0,0,0.0097,0.0098,0.0095,0.0095,0.0094,0.0057,0.0056,0.0056,0.0015,0.0014,0.0014,0.0013,-0.0024,-0.0025,-0.0026,0,0,0,0,0,0,0,0,0,0,0,0,0,0.0081,0.0098,0.0095,0.007,0.0067,0.0057,0.0056,0.0056,0.0015,0.0014,0.0014,0.0013,-0.0024,-0.0025,-0.0026,-0.0015,0,0,-0.0028,-0.0028,0,0,0,0,0,0,0,0,0.0082,0.0081,0.0074,0.0072,0.0069,0.004,0.0043,0.0032,0.0015,0.0035,0.0013,0.0013,-0.0002,-0.0005,-0.0011,-0.0017,-0.0018,-0.0028,-0.0029,-0.0029,-0.0029,0,0,0,0,0,0,0,0.0083,0.0082,0.008,0.0074,0.0071,0.0048,0.0045,0.0041,0.0021,0.0033,0.003,0.0027,-0.0004,-0.001,-0.0012,-0.0019,-0.0028,-0.0029,-0.0029,-0.003,-0.0038,-0.0038,0,0,0,0,0,0,0.0092,0.0084,0.0081,0.0078,0.0074,0.0049,0.0046,0.005,0.0021,0.0016,0.0027,0.0025,-0.0008,-0.0011,-0.0013,0.0002,-0.0029,-0.003,-0.003,-0.0038,-0.0038,-0.0038,0,0,0,0,0,0,0.0092,0.0093,0.0082,0.008,0.0077,0.005,0.0055,0.005,0.0042,0.0017,0.0011,0.0026,-0.0009,-0.0012,-0.0015,-0.0,-0.003,-0.0031,-0.0038,-0.0038,-0.0038,0.0029,0,0,0,0,0,0,0.0093,0.0093,0.0099,0.0081,0.0078,0.0086,0.0056,0.0049,0.0042,0.0038,0.0014,0.0009,-0.001,-0.0013,-0.0015,-0.0002,-0.0031,-0.0039,-0.0038,-0.0038,0.0027,0.0032,0.0036,0,0,0,0,0,0.0093,0.0109,0.01,0.0099,0.0087,0.0086,0.0083,0.006,0.0043,0.0049,0.0028,0.001,-0.0012,-0.0013,-0.0016,-0.0002,-0.0039,-0.0038,-0.0038,0.0025,0.0031,0.0036,0,0,0,0,0,0,0.0109,0.0106,0.0095,0.0108,0.0101,0.008,0.0082,0.0066,0.0054,0.0046,0.002,0.0015,0.0015,-0.0003,-0.0004,-0.0006,-0.0031,-0.0031,0.0017,0.0023,0.0028,0.0049,-0.0032,0,0,0,0,0,0.0117,0.0129,0.0118,0.0127,0.0127,0.0105,0.01,0.0085,0.0071,0.0064,0.0047,0.0026,0.0016,0.0012,-0.0003,0.0005,-0.0013,0.0008,0.0013,0.0017,0.0031,0.0014,0.0019,-0.0036,-0.0036,-0.0036,0,0,0.0123,0.0124,0.0128,0.0132,0.0122,0.0137,0.01,0.0098,0.0111,0.0063,0.0074,0.0044,0.002,0.0023,0.0021,0.0011,0.0022,0.0018,0.0022,0.0034,0.0015,0.0021,0.0026,-0.0035,-0.0035,-0.0036,0,0,0.0149,0.0145,0.0167,0.0173,0.0168,0.0156,0.0159,0.0142,0.0137,0.0143,0.0107,0.0086,0.0078,0.0058,0.005,0.0073,0.0046,0.0064,0.0113,0.0096,0.0101,0.0105,0.0089,0.0091,0.007,0.007,0.007,0,0.0156,0.0187,0.0171,0.02,0.0212,0.0172,0.0201,0.0194,0.0177,0.0181,0.0157,0.0127,0.0097,0.0102,0.0104,0.0086,0.0073,0.0096,0.0104,0.0107,0.011,0.0093,0.0095,0.0073,0.0073,0.0073,0.0072,0,0.0205,0.023,0.0245,0.027,0.0279,0.0296,0.0289,0.0291,0.0273,0.026,0.0255,0.0208,0.019,0.0172,0.0148,0.0153,0.0137,0.0111,0.0094,0.012,0.01,0.01,0.0078,0.0077,0.0076,0.0075,0,0,0.0219,0.027,0.0277,0.0313,0.0322,0.0341,0.0362,0.0375,0.04,0.0361,0.039,0.0339,0.0296,0.0282,0.0236,0.0217,0.0216,0.0181,0.0178,0.0175,0.0185,0.0135,0.013,0.0195,0.0195,0.0196,0.0163,0,0.0263,0.0339,0.0348,0.0418,0.0458,0.0446,0.048,0.0483,0.0473,0.0489,0.0427,0.0433,0.0344,0.0342,0.0302,0.0249,0.022,0.0227,0.0153,0.0151,0.0111,0.013,0.015,0.012,0.0163,0.0163,0.0163,0,0.0311,0.0361,0.044,0.0516,0.0532,0.0568,0.0618,0.0642,0.064,0.0635,0.0602,0.0556,0.0518,0.0444,0.0348,0.036,0.0277,0.0223,0.022,0.0153,0.0101,0.0099,0.0118,0.0163,0.0163,0.0163,0.0163,0,0.0346,0.0429,0.0499,0.0525,0.0593,0.0635,0.0669,0.0686,0.0739,0.0732,0.0775,0.0681,0.0682,0.0557,0.0415,0.0394,0.0315,0.0269,0.014,0.0136,0.0128,0.0122,0.0198,0.0198,0.0198,0.0198,0.0198,0,0.0397,0.0456,0.053,0.0576,0.0685,0.0699,0.0799,0.082,0.0865,0.0961,0.0857,0.0912,0.0716,0.0639,0.0473,0.0311,0.0349,0.0158,0.0127,0.015,0.0146,0.0162,0.0158,0.0197,0.0197,0.0197,0.0197,0,0.0427,0.0468,0.0571,0.0666,0.0711,0.0791,0.0921,0.1,0.1019,0.1147,0.1165,0.1108,0.1004,0.0788,0.0601,0.0417,0.0248,0.0174,0.0209,0.0181,0.0066,0.0066,0.004,0.0038,0.0036,0.0035,0.0033,0,0.0454,0.0507,0.0648,0.0735,0.0791,0.091,0.1015,0.1078,0.1189,0.1285,0.1381,0.1303,0.1263,0.0937,0.0605,0.0294,0.0254,0.0105,0.0051,0.0079,0.0051,0.0054,0.0056,0.007,0.0069,0.0069,0.0068,0,0.0529,0.0572,0.0669,0.0842,0.0979,0.1134,0.1295,0.1401,0.1505,0.1598,0.1711,0.1671,0.1352,0.1021,0.0565,0.0354,0.0146,0.008,0.0124,0.0097,0.0102,0.0076,0.0079,0.0063,0.0063,0.0064,0.0064,0.0064,0.0595,0.0684,0.0822,0.0985,0.1145,0.1359,0.1494,0.1664,0.1846,0.1972,0.1926,0.1837,0.1462,0.0854,0.0495,0.0109,0.0122,-0.0025,-0.002,-0.0015,-0.0016,-0.0015,-0.0076,-0.0076,-0.0076,-0.0077,-0.0077,0,0.0718,0.081,0.096,0.118,0.1358,0.1424,0.1686,0.1805,0.2013,0.2079,0.2098,0.1707,0.1325,0.0904,0.0329,-0.0016,-0.0032,-0.0121,-0.0062,-0.0055,-0.0049,-0.005,-0.012,-0.0121,-0.0122,-0.0122,0,0,0.0791,0.0962,0.1033,0.1337,0.1466,0.1719,0.1856,0.2015,0.2103,0.2128,0.2041,0.1892,0.1402,0.098,0.0524,0.0204,0.0154,0.0138,0.0206,0.0337,0.0348,0.0036,0.0046,0,0,0,0,0]}],[{"header":{"parameterUnit":"m.s-1","parameterCategory":2,"la1":30.2991,"la2":30.254,"lo1":-89.0895,"lo2":-89.0444,"dy":0.0017,"dx":0.0017,"nx":28,"ny":28,"refTime":"2025-03-24T03:00:00:Z","depth":"4","parameterNumber":2,"parameterNumberName":"U-component_of_CURRENTS"},"data":[0,0,0,0,0,0,0,0,0,0,0,0,0,0,0,0,0,0,0,0,0,0,0,0,0,0,0,0,0,0,0,0,0,0,0,0,0,0,0,0,0,0,0,0,0,0,0,0,0,0,0,0,0,0,0,0,0,0,0.1508,0.1508,0,0.1542,0.1543,0.1544,0.1601,0.1602,0.1603,0.1603,0.1655,0.1656,0.1656,0,0,0,0,0,0,0,0,0,0,0,0,0,0.1489,0.1489,0.1508,0.1508,0.1508,0.1542,0.1543,0.1544,0.1601,0.1602,0.1603,0.1604,0.1655,0.1656,0.1657,0,0,0,0,0,0,0,0,0,0,0,0,0,0.151,0.1489,0.1508,0.1539,0.1542,0.1542,0.1543,0.1544,0.1601,0.1602,0.1603,0.1604,0.1655,0.1656,0.1657,0.1639,0,0,0.166,0.166,0,0,0,0,0,0,0,0,0.1509,0.1511,0.1534,0.1537,0.154,0.1566,0.1555,0.1576,0.16,0.1581,0.1603,0.1605,0.1624,0.1628,0.1635,0.1641,0.1643,0.166,0.166,0.1661,0.1661,0,0,0,0,0,0,0,0.1507,0.151,0.1525,0.1534,0.1538,0.155,0.1554,0.1559,0.1598,0.1583,0.1587,0.1585,0.1627,0.1634,0.1637,0.1644,0.166,0.166,0.1661,0.1661,0.1763,0.1765,0,0,0,0,0,0,0.1496,0.1508,0.1523,0.1525,0.1524,0.1549,0.1554,0.1559,0.1598,0.1604,0.1584,0.1588,0.1632,0.1636,0.1639,0.1727,0.1661,0.1662,0.1662,0.1761,0.1764,0.1766,0,0,0,0,0,0,0.1496,0.1497,0.1522,0.1515,0.1519,0.1548,0.1552,0.1559,0.1604,0.1598,0.1606,0.1627,0.1633,0.1638,0.1679,0.1725,0.1662,0.1663,0.1759,0.1762,0.1765,0.1833,0,0,0,0,0,0,0.1495,0.1497,0.1517,0.1514,0.1519,0.1544,0.1551,0.1559,0.1598,0.1604,0.1636,0.164,0.1635,0.1678,0.168,0.1725,0.1664,0.1756,0.176,0.1764,0.1828,0.1838,0.1847,0,0,0,0,0,0.1494,0.1501,0.1518,0.1521,0.1539,0.1544,0.1549,0.1574,0.1599,0.1621,0.1649,0.1641,0.1706,0.168,0.1682,0.1729,0.1754,0.1759,0.1764,0.1824,0.1836,0.1847,0,0,0,0,0,0,0.15,0.1507,0.1526,0.1536,0.1553,0.1553,0.1577,0.1595,0.1635,0.1655,0.1658,0.1664,0.1721,0.1714,0.1686,0.1772,0.1733,0.1738,0.1778,0.1789,0.1799,0.1795,0.1664,0,0,0,0,0,0.1509,0.1525,0.1531,0.1546,0.1558,0.1579,0.1593,0.1611,0.1632,0.1654,0.1672,0.1702,0.1735,0.1755,0.1773,0.1811,0.1819,0.1847,0.1856,0.1864,0.1865,0.1921,0.1936,0.1782,0.1782,0.1782,0,0,0.1518,0.1523,0.1535,0.155,0.1571,0.1589,0.1593,0.1623,0.1653,0.1651,0.171,0.1734,0.1754,0.1803,0.1829,0.1808,0.1915,0.187,0.1877,0.1873,0.1928,0.1943,0.1956,0.1785,0.1785,0.1784,0,0,0.1519,0.1549,0.156,0.1576,0.1605,0.162,0.1638,0.1661,0.1695,0.174,0.1759,0.1808,0.1847,0.1871,0.1889,0.196,0.1963,0.198,0.2024,0.208,0.2092,0.2104,0.2143,0.2157,0.1984,0.1985,0.1985,0,0.1533,0.1543,0.1565,0.1576,0.1598,0.1639,0.166,0.1695,0.1731,0.1763,0.1772,0.1861,0.1878,0.1945,0.1979,0.1981,0.2011,0.1977,0.2091,0.2103,0.2113,0.215,0.2165,0.1989,0.1988,0.1988,0.1987,0,0.1531,0.1556,0.1565,0.1602,0.1631,0.1657,0.1699,0.1746,0.1796,0.1827,0.191,0.1939,0.1993,0.2016,0.2023,0.2113,0.2111,0.2096,0.2059,0.2132,0.2167,0.2182,0.1994,0.1993,0.1992,0.1991,0,0,0.1518,0.1557,0.1566,0.1584,0.165,0.1662,0.1737,0.1799,0.1851,0.191,0.1975,0.2049,0.208,0.2103,0.2125,0.2174,0.228,0.2178,0.2179,0.221,0.241,0.2246,0.2246,0.2297,0.23,0.2302,0.2407,0,0.1518,0.1531,0.1565,0.1607,0.1622,0.1693,0.1751,0.1821,0.1893,0.1965,0.203,0.2101,0.2111,0.2155,0.2211,0.227,0.232,0.2252,0.2339,0.2341,0.2181,0.2257,0.231,0.2418,0.2421,0.2423,0.2425,0,0.1502,0.1515,0.1543,0.1603,0.1621,0.1665,0.1773,0.183,0.1949,0.2008,0.21,0.2154,0.2261,0.2244,0.2386,0.2352,0.2391,0.2419,0.2423,0.2252,0.2203,0.2328,0.245,0.2448,0.2446,0.2445,0.2443,0,0.1448,0.1501,0.1524,0.1543,0.1618,0.1667,0.1733,0.185,0.1912,0.2049,0.2118,0.2233,0.2321,0.239,0.2475,0.2452,0.2606,0.2574,0.2455,0.2444,0.2528,0.2514,0.2655,0.2655,0.2655,0.2654,0.2654,0,0.1407,0.1424,0.1506,0.1503,0.1548,0.1639,0.1717,0.1793,0.1934,0.2013,0.2144,0.2223,0.2371,0.2474,0.2511,0.2534,0.2646,0.2471,0.2463,0.2556,0.2544,0.2538,0.2523,0.2658,0.2657,0.2657,0.2656,0,0.1311,0.1372,0.1382,0.147,0.1507,0.1539,0.1682,0.174,0.1902,0.2014,0.2069,0.2266,0.2409,0.2515,0.2644,0.2577,0.2606,0.2578,0.2683,0.2678,0.2395,0.2383,0.245,0.2445,0.2441,0.2438,0.2435,0,0.1238,0.1241,0.1321,0.1339,0.1379,0.1462,0.1519,0.1688,0.1765,0.2017,0.2057,0.2266,0.2376,0.2447,0.2551,0.2602,0.2568,0.2548,0.2449,0.2391,0.2377,0.2371,0.2365,0.2428,0.2427,0.2426,0.2425,0,0.1082,0.1137,0.1156,0.1205,0.126,0.1321,0.1435,0.1482,0.1698,0.1856,0.2017,0.2111,0.2267,0.2369,0.2433,0.2453,0.2538,0.2504,0.2512,0.2419,0.2365,0.2354,0.2353,0.2411,0.2413,0.2414,0.2415,0,0.0966,0.0955,0.1009,0.1065,0.113,0.1186,0.1255,0.1388,0.1497,0.1792,0.1838,0.207,0.2258,0.2293,0.2344,0.2362,0.2317,0.2213,0.2234,0.2251,0.2132,0.2031,0.1976,0,0,0,0,0,0.0843,0.0852,0.0868,0.0924,0.1001,0.1057,0.1206,0.1301,0.1514,0.158,0.1719,0.1857,0.1985,0.2095,0.2076,0.2221,0.2297,0.218,0.218,0.2332,0.2349,0.2223,0,0,0,0,0,0,0.0756,0.0767,0.0816,0.0829,0.0858,0.093,0.1028,0.1169,0.1235,0.146,0.1556,0.1713,0.1875,0.1988,0.2034,0.2061,0.2012,0.2313,0.2307,0.2323,0.2338,0.2351,0.2228,0,0,0,0,0]},{"header":{"parameterUnit":"m.s-1","parameterCategory":2,"la1":30.2991,"la2":30.254,"lo1":-89.0895,"lo2":-89.0444,"dy":0.0017,"dx":0.0017,"nx":28,"ny":28,"refTime":"2025-03-24T03:00:00:Z","depth":"4","parameterNumber":3,"parameterNumberName":"V-component_of_CURRENTS"},"data":[0,0,0,0,0,0,0,0,0,0,0,0,0,0,0,0,0,0,0,0,0,0,0,0,0,0,0,0,0,0,0,0,0,0,0,0,0,0,0,0,0,0,0,0,0,0,0,0,0,0,0,0,0,0,0,0,0,0,0.0156,0.0156,0,0.015,0.015,0.015,0.0134,0.0134,0.0134,0.0133,0.0114,0.0113,0.0113,0,0,0,0,0,0,0,0,0,0,0,0,0,0.0138,0.0139,0.0156,0.0156,0.0156,0.015,0.015,0.015,0.0134,0.0134,0.0133,0.0133,0.0114,0.0114,0.0113,0,0,0,0,0,0,0,0,0,0,0,0,0,0.014,0.0139,0.0156,0.0147,0.0147,0.015,0.015,0.015,0.0134,0.0134,0.0133,0.0133,0.0114,0.0114,0.0113,0.0121,0,0,0.0112,0.0112,0,0,0,0,0,0,0,0,0.014,0.0141,0.0149,0.0148,0.0147,0.0143,0.0137,0.014,0.0134,0.0139,0.0133,0.0133,0.0123,0.0122,0.0121,0.012,0.0119,0.0112,0.0112,0.0112,0.0112,0,0,0,0,0,0,0,0.014,0.0141,0.0153,0.0149,0.0148,0.0139,0.0139,0.0137,0.0133,0.0138,0.0137,0.0137,0.0122,0.0122,0.0121,0.0119,0.0112,0.0112,0.0112,0.0112,0.0107,0.0107,0,0,0,0,0,0,0.0143,0.0141,0.0153,0.0153,0.0143,0.014,0.014,0.0144,0.0133,0.0131,0.0138,0.0136,0.0123,0.0121,0.012,0.0128,0.0112,0.0111,0.0111,0.0107,0.0107,0.0107,0,0,0,0,0,0,0.0143,0.0144,0.0154,0.0147,0.0147,0.0141,0.0146,0.0144,0.0145,0.0133,0.013,0.014,0.0122,0.012,0.0121,0.0127,0.0111,0.0111,0.0107,0.0107,0.0107,0.0144,0,0,0,0,0,0,0.0142,0.0144,0.015,0.0147,0.0148,0.0164,0.0147,0.0145,0.0146,0.0145,0.0134,0.0132,0.0122,0.0121,0.012,0.0126,0.0111,0.0107,0.0107,0.0107,0.0143,0.0145,0.0148,0,0,0,0,0,0.0142,0.0155,0.015,0.0152,0.0156,0.0164,0.0164,0.0157,0.0147,0.0154,0.0143,0.0132,0.0121,0.0121,0.012,0.0126,0.0107,0.0107,0.0107,0.0142,0.0145,0.0148,0,0,0,0,0,0,0.0149,0.0155,0.0149,0.0163,0.0165,0.0162,0.0168,0.0161,0.0158,0.0154,0.0139,0.0136,0.0137,0.0126,0.0127,0.0124,0.011,0.011,0.0137,0.014,0.0142,0.0152,0.011,0,0,0,0,0,0.0153,0.0165,0.0166,0.0177,0.018,0.0174,0.0176,0.0171,0.0167,0.0165,0.0158,0.0146,0.0138,0.0135,0.0128,0.0131,0.0104,0.0131,0.0134,0.0136,0.0142,0.0105,0.0104,0.0108,0.0108,0.0108,0,0,0.0157,0.0163,0.0168,0.0179,0.0179,0.0193,0.0174,0.0181,0.019,0.0164,0.0175,0.0158,0.014,0.0142,0.0141,0.0134,0.0119,0.0137,0.0139,0.0144,0.0105,0.0104,0.0104,0.0108,0.0108,0.0108,0,0,0.0177,0.0179,0.0196,0.0205,0.0211,0.0207,0.0211,0.0211,0.021,0.0218,0.0195,0.0181,0.018,0.0163,0.0154,0.0166,0.0134,0.0163,0.0185,0.0148,0.0148,0.0147,0.0104,0.0099,0.0164,0.0164,0.0164,0,0.0181,0.0207,0.0202,0.0224,0.0238,0.0217,0.0241,0.0237,0.0236,0.024,0.0228,0.0209,0.0189,0.0181,0.0181,0.0172,0.0144,0.0177,0.0152,0.015,0.0149,0.0105,0.0099,0.0165,0.0165,0.0165,0.0165,0,0.0215,0.0238,0.0252,0.0273,0.0283,0.0302,0.0297,0.0304,0.0296,0.0289,0.0284,0.0252,0.0242,0.0226,0.0208,0.019,0.017,0.016,0.0146,0.0151,0.0104,0.0097,0.0168,0.0167,0.0167,0.0166,0,0,0.0222,0.0268,0.0274,0.0305,0.0315,0.0334,0.0345,0.0357,0.0374,0.0349,0.0363,0.0325,0.0301,0.0288,0.0254,0.0215,0.0171,0.0186,0.0183,0.0146,0.0084,0.0069,0.0059,0.0157,0.0156,0.0155,0.0052,0,0.0253,0.0317,0.0323,0.038,0.0415,0.0409,0.0431,0.0434,0.0425,0.043,0.0377,0.0375,0.0326,0.0321,0.0272,0.0203,0.0156,0.0199,0.0082,0.0079,0.0067,0.0053,0.0153,0.0047,0.0045,0.0044,0.0043,0,0.0285,0.033,0.0396,0.0461,0.0475,0.0503,0.0542,0.0559,0.0544,0.0534,0.0501,0.0459,0.0399,0.0359,0.023,0.026,0.0178,0.0113,0.0107,0.0078,0.0051,0.0042,0.0031,0.0032,0.0032,0.0033,0.0034,0,0.0313,0.0382,0.0444,0.0466,0.0525,0.056,0.0591,0.0598,0.063,0.0601,0.0606,0.0521,0.0491,0.0373,0.0231,0.0233,0.0081,0.0068,-0.0028,-0.0031,-0.0002,-0.0,-0.0025,-0.0025,-0.0025,-0.0024,-0.0024,0,0.0352,0.0405,0.0473,0.0514,0.0604,0.0619,0.0703,0.0709,0.0725,0.076,0.067,0.0657,0.0495,0.0388,0.0249,0.0086,0.0092,-0.0029,-0.0058,0.0014,0.0019,-0.0008,-0.0005,-0.0028,-0.0027,-0.0027,-0.0026,0,0.0381,0.0418,0.0506,0.059,0.0627,0.0697,0.0802,0.0855,0.0846,0.0883,0.0877,0.0765,0.0615,0.0439,0.024,0.0123,-0.0039,-0.0098,-0.0015,-0.0037,-0.0133,-0.0127,-0.0213,-0.0214,-0.0215,-0.0216,-0.0217,0,0.0407,0.0454,0.0572,0.064,0.069,0.0799,0.0878,0.0919,0.0969,0.0944,0.0957,0.0826,0.0728,0.0437,0.0236,-0.0035,-0.0073,-0.016,-0.0146,-0.0132,-0.0152,-0.0144,-0.0136,-0.0219,-0.0219,-0.0219,-0.022,0,0.046,0.0497,0.0571,0.0704,0.0809,0.0934,0.104,0.1084,0.1112,0.1101,0.1027,0.0861,0.0687,0.0443,0.0231,0.0035,-0.0106,-0.0173,-0.0172,-0.016,-0.0141,-0.0158,-0.0149,-0.0224,-0.0223,-0.0223,-0.0223,0,0.05,0.0558,0.0646,0.077,0.0899,0.1022,0.1085,0.1138,0.1183,0.114,0.1109,0.09,0.0781,0.0478,0.0278,0.0085,0.0036,-0.0024,-0.0032,-0.003,0.0049,0.0101,0.0066,0,0,0,0,0,0.0538,0.0601,0.0707,0.0844,0.0969,0.1046,0.1167,0.1209,0.123,0.1195,0.1155,0.0985,0.0671,0.0527,0.0335,0.0249,-0.0001,0.0015,-0.0074,-0.0246,-0.0241,-0.0182,0,0,0,0,0,0,0.0559,0.0653,0.0703,0.0875,0.0972,0.112,0.12,0.1222,0.1203,0.1177,0.102,0.0927,0.063,0.0781,0.0325,0.0263,0.0178,-0.0133,-0.0138,-0.0249,-0.0244,-0.0241,-0.0178,0,0,0,0,0]}]]